Olean, NY

5:39 AM EDT on May 23, 2018 (GMT -0400)
Cattaraugus County-Olean

Weather History for KOLE - November, 2013

Change the Weather History Date:

Sunday, November 10, 2013

  Actual Average (KBFD) Record (KBFD)
Temperature  
Mean Temperature 37 °F -  
Max Temperature 42 °F 46 °F 66 °F (1975)
Min Temperature 32 °F 30 °F 7 °F (2017)
Degree Days  
Heating Degree Days 28    
Moisture  
Dew Point 33 °F    
Average Humidity 88    
Maximum Humidity 100    
Minimum Humidity 75    
Precipitation  
Precipitation 0.00 in - - ()
Sea Level Pressure  
Sea Level Pressure 29.93 in    
Wind  
Wind Speed 9 mph (West)    
Max Wind Speed 17 mph    
Max Gust Speed 33 mph    
Visibility 9 miles    
Events Rain , Snow    
Averages and records for this station are not official NWS values.
T = Trace of Precipitation, MM = Missing Value Source: NWS Daily Summary

Daily Weather History Graph

Daily Weather History Graph

Search for Another Location

Airport or City:

Astronomy

Nov. 10, 2013 Rise Set
Actual Time 6:58 AM EST 4:56 PM EST
Civil Twilight 6:28 AM EST 5:26 PM EST
Nautical Twilight 5:54 AM EST 5:59 PM EST
Astronomical Twilight 5:21 AM EST 6:32 PM EST
Moon 1:07 PM EST (11/10) No Moon Set
Length of Visible Light 10h 57m
Length of Day
9h 58m
First Quarter, 55% of the Moon is Illuminated
Nov 10
First Quarter
Nov 17
Full
Nov 25
Last Quarter
Dec 2
New
Dec 9
First Quarter

Hourly Weather History & Observations

Time (EST) Temp. Windchill Dew Point Humidity Pressure Visibility Wind Dir Wind Speed Gust Speed Precip Events Conditions
12:15 AM 41.0 °F 36.4 °F 37.4 °F 87% 29.83 in 10.0 mi WSW 6.9 mph 18.4 mph N/A   Overcast
12:35 AM 41.0 °F 35.2 °F 37.4 °F 87% 29.83 in 10.0 mi WSW 9.2 mph 20.7 mph N/A   Overcast
12:55 AM 41.0 °F 36.4 °F 37.4 °F 87% 29.82 in 10.0 mi West 6.9 mph - N/A   Overcast
1:15 AM 41.0 °F 35.2 °F 37.4 °F 87% 29.82 in 10.0 mi WSW 9.2 mph - N/A   Overcast
1:35 AM 41.0 °F 36.4 °F 37.4 °F 87% 29.82 in 10.0 mi WSW 6.9 mph 17.3 mph N/A   Overcast
1:55 AM 41.0 °F 37.1 °F 37.4 °F 87% 29.81 in 10.0 mi WSW 5.8 mph - N/A   Overcast
2:15 AM 41.0 °F 36.4 °F 37.4 °F 87% 29.80 in 10.0 mi WSW 6.9 mph - N/A   Overcast
2:35 AM 42.8 °F 37.5 °F 37.4 °F 81% 29.81 in 10.0 mi West 9.2 mph - N/A   Overcast
2:55 AM 42.8 °F 38.0 °F 35.6 °F 76% 29.80 in 10.0 mi WSW 8.1 mph 24.2 mph N/A   Overcast
3:15 AM 41.0 °F 35.2 °F 35.6 °F 81% 29.81 in 10.0 mi West 9.2 mph 20.7 mph N/A   Overcast
3:35 AM 41.0 °F 35.8 °F 35.6 °F 81% 29.81 in 10.0 mi WSW 8.1 mph - N/A   Overcast
3:55 AM 41.0 °F 35.8 °F 37.4 °F 87% 29.81 in 10.0 mi WSW 8.1 mph - N/A   Overcast
4:15 AM 41.0 °F 36.4 °F 37.4 °F 87% 29.81 in 10.0 mi WSW 6.9 mph - N/A   Mostly Cloudy
4:35 AM 41.0 °F 37.1 °F 37.4 °F 87% 29.80 in 10.0 mi WSW 5.8 mph - N/A   Overcast
4:55 AM 41.0 °F 36.4 °F 37.4 °F 87% 29.79 in 10.0 mi WSW 6.9 mph - N/A   Overcast
5:15 AM 41.0 °F 35.2 °F 35.6 °F 81% 29.79 in 10.0 mi WSW 9.2 mph - N/A   Overcast
5:35 AM 37.4 °F 30.3 °F 35.6 °F 93% 29.79 in 7.0 mi West 10.4 mph 26.5 mph N/A Rain Rain
5:55 AM 35.6 °F 27.5 °F 35.6 °F 100% 29.81 in 5.0 mi WNW 11.5 mph 31.1 mph N/A Rain Light Rain
6:15 AM 35.6 °F 28.6 °F 33.8 °F 93% 29.81 in 10.0 mi West 9.2 mph 23.0 mph N/A Rain Light Rain
6:35 AM 37.4 °F 32.1 °F 33.8 °F 87% 29.82 in 10.0 mi WNW 6.9 mph 18.4 mph N/A   Overcast
6:55 AM 35.6 °F 29.9 °F 33.8 °F 93% 29.82 in 10.0 mi West 6.9 mph 19.6 mph N/A   Overcast
7:15 AM 35.6 °F 29.9 °F 33.8 °F 93% 29.82 in 10.0 mi West 6.9 mph - N/A   Overcast
7:35 AM 35.6 °F 30.7 °F 33.8 °F 93% 29.82 in 10.0 mi West 5.8 mph - N/A   Overcast
7:55 AM 35.6 °F 29.9 °F 33.8 °F 93% 29.83 in 10.0 mi West 6.9 mph - N/A   Light Drizzle
8:15 AM 35.6 °F 28.6 °F 32.0 °F 87% 29.84 in 7.0 mi WNW 9.2 mph 16.1 mph N/A Rain Rain
8:35 AM 35.6 °F 30.7 °F 33.8 °F 93% 29.85 in 10.0 mi WNW 5.8 mph - N/A Rain Light Rain
8:55 AM 35.6 °F 29.2 °F 32.0 °F 87% 29.85 in 10.0 mi West 8.1 mph 18.4 mph N/A   Light Drizzle
9:15 AM 35.6 °F 29.9 °F 32.0 °F 87% 29.86 in 10.0 mi West 6.9 mph 20.7 mph N/A Rain Light Rain
9:35 AM 35.6 °F 29.2 °F 32.0 °F 87% 29.86 in 10.0 mi West 8.1 mph 20.7 mph N/A   Overcast
9:55 AM 35.6 °F 29.2 °F 32.0 °F 87% 29.87 in 10.0 mi West 8.1 mph - N/A   Overcast
10:15 AM 35.6 °F 27.1 °F 32.0 °F 87% 29.87 in 10.0 mi West 12.7 mph 20.7 mph N/A Rain Light Rain
10:35 AM 35.6 °F 29.9 °F 32.0 °F 87% 29.88 in 10.0 mi West 6.9 mph 16.1 mph N/A Snow Light Snow
10:55 AM 35.6 °F 27.5 °F 32.0 °F 87% 29.88 in 10.0 mi West 11.5 mph 17.3 mph N/A Rain Light Rain
11:15 AM 33.8 °F 25.8 °F 32.0 °F 93% 29.88 in 4.0 mi West 10.4 mph 24.2 mph N/A Rain Light Rain
11:35 AM 33.8 °F 27.0 °F 32.0 °F 93% 29.88 in 2.5 mi West 8.1 mph - N/A Rain Light Rain
11:55 AM 33.8 °F 25.3 °F 32.0 °F 93% 29.89 in 10.0 mi West 11.5 mph 23.0 mph N/A Rain Rain
12:15 PM 35.6 °F 28.0 °F 33.8 °F 93% 29.88 in 10.0 mi West 10.4 mph 19.6 mph N/A   Overcast
12:35 PM 35.6 °F 26.6 °F 32.0 °F 87% 29.89 in 5.0 mi West 13.8 mph 25.3 mph N/A Snow Snow
12:55 PM 35.6 °F 28.6 °F 32.0 °F 87% 29.89 in 10.0 mi West 9.2 mph 23.0 mph N/A   Overcast
1:15 PM 35.6 °F 28.0 °F 32.0 °F 87% 29.90 in 10.0 mi West 10.4 mph 28.8 mph N/A   Overcast
1:35 PM 35.6 °F 28.6 °F 32.0 °F 87% 29.91 in 10.0 mi West 9.2 mph 23.0 mph N/A Snow Light Snow
1:55 PM 35.6 °F 28.0 °F 32.0 °F 87% 29.92 in 10.0 mi West 10.4 mph 25.3 mph N/A   Overcast
2:15 PM 35.6 °F 26.2 °F 32.0 °F 87% 29.93 in 10.0 mi West 15.0 mph 27.6 mph N/A   Overcast
2:35 PM 35.6 °F 28.6 °F 30.2 °F 81% 29.93 in 10.0 mi West 9.2 mph 25.3 mph N/A   Overcast
2:55 PM 35.6 °F 27.1 °F 30.2 °F 81% 29.94 in 10.0 mi West 12.7 mph 27.6 mph N/A   Overcast
3:15 PM 37.4 °F 28.9 °F 30.2 °F 75% 29.94 in 10.0 mi West 13.8 mph 27.6 mph N/A   Overcast
3:35 PM 35.6 °F 28.0 °F 30.2 °F 81% 29.96 in 10.0 mi West 10.4 mph 20.7 mph N/A   Overcast
3:55 PM 35.6 °F 26.2 °F 32.0 °F 87% 29.96 in 10.0 mi WNW 15.0 mph 27.6 mph N/A Rain Light Rain
4:15 PM 32.0 °F 22.1 °F 32.0 °F 100% 29.99 in 0.8 mi WNW 13.8 mph 24.2 mph N/A Snow Light Snow
4:35 PM 33.8 °F 26.4 °F 32.0 °F 93% 30.00 in 10.0 mi WNW 9.2 mph 26.5 mph N/A   Overcast
4:55 PM 33.8 °F 25.8 °F 32.0 °F 93% 30.01 in 10.0 mi West 10.4 mph 26.5 mph N/A   Overcast
5:15 PM 33.8 °F 27.0 °F 32.0 °F 93% 30.01 in 10.0 mi West 8.1 mph 27.6 mph N/A   Overcast
5:35 PM 33.8 °F 24.3 °F 32.0 °F 93% 30.02 in 7.0 mi WNW 13.8 mph 27.6 mph N/A Snow Light Snow
5:55 PM 33.8 °F 25.3 °F 32.0 °F 93% 30.03 in 10.0 mi WNW 11.5 mph 24.2 mph N/A   Overcast
6:15 PM 33.8 °F 23.9 °F 32.0 °F 93% 30.04 in 7.0 mi WNW 15.0 mph 29.9 mph N/A Snow Light Snow
6:35 PM 33.8 °F 27.7 °F 32.0 °F 93% 30.05 in 10.0 mi WNW 6.9 mph 19.6 mph N/A   Overcast
6:55 PM 33.8 °F 24.3 °F 32.0 °F 93% 30.06 in 4.0 mi WNW 13.8 mph 32.2 mph N/A Snow Light Snow
7:15 PM 33.8 °F 23.9 °F 30.2 °F 87% 30.07 in 7.0 mi WNW 15.0 mph 29.9 mph N/A Snow Light Snow
7:35 PM 33.8 °F 23.2 °F 30.2 °F 87% 30.08 in 10.0 mi WNW 17.3 mph 31.1 mph N/A   Overcast
7:55 PM 33.8 °F 23.9 °F 28.4 °F 81% 30.09 in 10.0 mi WNW 15.0 mph 27.6 mph N/A   Overcast
8:15 PM 33.8 °F 25.8 °F 28.4 °F 81% 30.09 in 10.0 mi WNW 10.4 mph 19.6 mph N/A   Overcast
8:35 PM 33.8 °F 24.3 °F 28.4 °F 81% 30.10 in 10.0 mi WNW 13.8 mph 31.1 mph N/A   Overcast
8:55 PM 33.8 °F 24.3 °F 28.4 °F 81% 30.10 in 10.0 mi WNW 13.8 mph 33.4 mph N/A   Overcast
9:15 PM 33.8 °F 23.9 °F 30.2 °F 87% 30.11 in 10.0 mi WNW 15.0 mph 24.2 mph N/A   Overcast
9:35 PM 33.8 °F 23.2 °F 30.2 °F 87% 30.11 in 10.0 mi WNW 17.3 mph 27.6 mph N/A   Overcast
9:55 PM 33.8 °F 25.3 °F 30.2 °F 87% 30.11 in 10.0 mi WNW 11.5 mph 24.2 mph N/A   Overcast
10:15 PM 33.8 °F 24.8 °F 28.4 °F 81% 30.12 in 10.0 mi WNW 12.7 mph 29.9 mph N/A   Overcast
10:35 PM 33.8 °F 25.3 °F 28.4 °F 81% 30.12 in 10.0 mi WNW 11.5 mph 25.3 mph N/A   Overcast
10:55 PM 32.0 °F 23.6 °F 28.4 °F 87% 30.12 in 10.0 mi WNW 10.4 mph 23.0 mph N/A   Scattered Clouds
11:15 PM 32.0 °F 24.8 °F 28.4 °F 87% 30.12 in 10.0 mi WNW 8.1 mph 20.7 mph N/A   Clear
11:35 PM 32.0 °F 24.2 °F 28.4 °F 87% 30.13 in 10.0 mi WNW 9.2 mph 17.3 mph N/A   Clear
11:55 PM 32.0 °F 25.6 °F 28.4 °F 87% 30.14 in 10.0 mi WNW 6.9 mph - N/A   Mostly Cloudy